User: anonymous   Login
Location: Unspecified
(0.0000°N, 0.0000°E)
Time: 02:05:30
(UTC+00:00)
Language:

STARLINK-35275 - Orbit

View from above orbital plane
View from above orbital plane
View from above satellite
View from above satellite

Ground track
Ground track

The orbit is defined by the following mean orbital elements,

1 65756U          26144.85801403 +.00000000 +00000-0 +75043-3 0 00000
2 65756  53.1622 339.2102 0000939  88.7794 271.3315 15.30214639    00
Epoch (UTC): 24 May 2026 20:35:32
Eccentricity: 0.0000939
inclination: 53.1622°
perigee height: 475 km
apogee height: 476 km
right ascension of ascending node: 339.2102°
argument of perigee: 88.7794°
revolutions per day: 15.30214639
mean anomaly at epoch: 271.3315°

The dashed part of the orbit path shows where the satellite is in the earth's shadow,  

DLR